Time,TemperatureF,DewpointF,PressureIn,WindDirection,WindDirectionDegrees,WindSpeedMPH,WindSpeedGustMPH,Humidity,HourlyPrecipIn,Conditions,Clouds,dailyrainin,SoftwareType,DateUTC
2013-02-02 00:01:00,66.0,61.0,30.13,West,271,3.0,7.0,83,0.00,,,0.19,,2013-02-02 10:01:00,
2013-02-02 00:11:00,66.0,61.0,30.13,West,271,3.0,7.0,83,0.00,,,0.19,,2013-02-02 10:11:00,
2013-02-02 00:21:00,66.0,61.0,30.13,WNW,282,3.0,6.0,83,0.00,,,0.19,,2013-02-02 10:21:00,
2013-02-02 00:31:00,66.0,60.0,30.13,WNW,303,3.0,6.0,82,0.00,,,0.19,,2013-02-02 10:31:00,
2013-02-02 00:41:00,66.0,60.0,30.13,WNW,303,3.0,6.0,82,0.00,,,0.19,,2013-02-02 10:41:00,
2013-02-02 00:52:00,66.0,60.0,30.13,WNW,296,3.0,6.0,81,0.00,,,0.19,,2013-02-02 10:52:00,
2013-02-02 01:01:00,66.0,60.0,30.12,WNW,295,3.0,7.0,81,0.00,,,0.19,,2013-02-02 11:01:00,
2013-02-02 01:11:00,66.0,60.0,30.12,WNW,295,3.0,7.0,81,0.00,,,0.19,,2013-02-02 11:11:00,
2013-02-02 01:21:00,65.0,59.0,30.12,West,268,3.0,5.0,81,0.00,,,0.18,,2013-02-02 11:21:00,
2013-02-02 01:31:00,65.0,59.0,30.11,WNW,299,4.0,6.0,82,0.00,,,0.18,,2013-02-02 11:31:00,
2013-02-02 01:41:00,65.0,59.0,30.11,WNW,299,4.0,6.0,82,0.00,,,0.18,,2013-02-02 11:41:00,
2013-02-02 01:52:00,65.0,59.0,30.11,West,277,3.0,5.0,82,0.00,,,0.18,,2013-02-02 11:52:00,
2013-02-02 02:01:00,65.0,60.0,30.10,West,272,2.0,5.0,83,0.00,,,0.18,,2013-02-02 12:01:00,
2013-02-02 02:11:00,65.0,60.0,30.10,West,272,2.0,5.0,83,0.00,,,0.18,,2013-02-02 12:11:00,
2013-02-02 02:22:00,65.0,60.0,30.10,West,277,2.0,5.0,83,0.00,,,0.05,,2013-02-02 12:22:00,
2013-02-02 02:32:00,65.0,60.0,30.09,West,276,2.0,5.0,83,0.00,,,0.05,,2013-02-02 12:32:00,
2013-02-02 02:42:00,65.0,60.0,30.09,West,276,2.0,5.0,83,0.00,,,0.05,,2013-02-02 12:42:00,
2013-02-02 02:52:00,64.0,59.0,30.08,WSW,252,3.0,6.0,83,0.00,,,0.05,,2013-02-02 12:52:00,
2013-02-02 03:02:00,64.0,59.0,30.08,West,270,2.0,5.0,83,0.00,,,0.05,,2013-02-02 13:02:00,
2013-02-02 03:11:00,64.0,59.0,30.08,West,270,2.0,5.0,83,0.00,,,0.05,,2013-02-02 13:11:00,
2013-02-02 03:21:00,64.0,59.0,30.08,WNW,291,2.0,4.0,83,0.00,,,0.04,,2013-02-02 13:21:00,
2013-02-02 03:32:00,64.0,59.0,30.08,NW,305,3.0,5.0,83,0.00,,,0.04,,2013-02-02 13:32:00,
2013-02-02 03:42:00,64.0,59.0,30.08,NW,305,3.0,5.0,83,0.00,,,0.04,,2013-02-02 13:42:00,
2013-02-02 03:52:00,64.0,59.0,30.08,WNW,288,3.0,6.0,83,0.00,,,0.04,,2013-02-02 13:52:00,
2013-02-02 04:01:00,63.0,58.0,30.09,West,266,2.0,7.0,83,0.00,,,0.04,,2013-02-02 14:01:00,
2013-02-02 04:11:00,63.0,58.0,30.09,West,266,2.0,7.0,83,0.00,,,0.04,,2013-02-02 14:11:00,
2013-02-02 04:22:00,63.0,57.0,30.09,West,278,3.0,6.0,82,0.00,,,0.04,,2013-02-02 14:22:00,
2013-02-02 04:32:00,63.0,57.0,30.09,West,272,3.0,8.0,82,0.00,,,0.04,,2013-02-02 14:32:00,
2013-02-02 04:42:00,63.0,57.0,30.09,West,272,3.0,8.0,82,0.00,,,0.04,,2013-02-02 14:42:00,
2013-02-02 04:52:00,63.0,57.0,30.09,West,276,3.0,7.0,81,0.00,,,0.04,,2013-02-02 14:52:00,
2013-02-02 05:02:00,64.0,58.0,30.09,West,277,4.0,6.0,82,0.00,,,0.04,,2013-02-02 15:02:00,
2013-02-02 05:11:00,64.0,58.0,30.09,West,277,4.0,6.0,82,0.00,,,0.04,,2013-02-02 15:11:00,
2013-02-02 05:21:00,64.0,58.0,30.10,WNW,294,3.0,7.0,81,0.00,,,0.01,,2013-02-02 15:21:00,
2013-02-02 05:32:00,64.0,58.0,30.10,West,276,2.0,5.0,82,0.00,,,0.01,,2013-02-02 15:32:00,
2013-02-02 05:41:00,64.0,58.0,30.10,West,276,2.0,5.0,82,0.00,,,0.01,,2013-02-02 15:41:00,
2013-02-02 05:52:00,64.0,58.0,30.11,West,265,2.0,5.0,82,0.00,,,0.01,,2013-02-02 15:52:00,
2013-02-02 06:01:00,64.0,58.0,30.11,West,266,2.0,6.0,82,0.00,,,0.01,,2013-02-02 16:01:00,
2013-02-02 06:11:00,64.0,58.0,30.11,West,266,2.0,6.0,82,0.00,,,0.01,,2013-02-02 16:11:00,
2013-02-02 06:22:00,65.0,59.0,30.12,West,270,2.0,5.0,82,0.00,,,0.01,,2013-02-02 16:22:00,
2013-02-02 06:31:00,65.0,60.0,30.13,West,266,2.0,4.0,83,0.00,,,0.01,,2013-02-02 16:31:00,
2013-02-02 06:42:00,65.0,60.0,30.13,West,266,2.0,4.0,83,0.00,,,0.01,,2013-02-02 16:42:00,
2013-02-02 06:52:00,66.0,60.0,30.13,West,259,0.0,3.0,82,0.00,,,0.01,,2013-02-02 16:52:00,
2013-02-02 07:01:00,68.0,62.0,30.14,East,85,1.0,9.0,81,0.00,,,0.01,,2013-02-02 17:01:00,
2013-02-02 07:11:00,68.0,62.0,30.14,East,85,1.0,9.0,81,0.00,,,0.01,,2013-02-02 17:11:00,
2013-02-02 07:21:00,70.0,63.0,30.14,NE,39,4.0,10.0,79,0.00,,,0.01,,2013-02-02 17:21:00,
2013-02-02 07:31:00,72.0,65.0,30.15,ENE,59,6.0,12.0,78,0.00,,,0.01,,2013-02-02 17:31:00,
2013-02-02 07:41:00,72.0,65.0,30.15,ENE,59,6.0,12.0,78,0.00,,,0.01,,2013-02-02 17:41:00,
2013-02-02 07:52:00,72.0,64.0,30.15,ENE,66,9.0,13.0,76,0.00,,,0.01,,2013-02-02 17:52:00,
2013-02-02 08:02:00,73.0,65.0,30.16,NE,54,9.0,14.0,76,0.00,,,0.01,,2013-02-02 18:02:00,
2013-02-02 08:11:00,73.0,65.0,30.16,NE,54,9.0,14.0,76,0.00,,,0.01,,2013-02-02 18:11:00,
2013-02-02 08:21:00,73.0,64.0,30.16,East,88,7.0,14.0,73,0.00,,,0.01,,2013-02-02 18:21:00,
2013-02-02 08:31:00,73.0,64.0,30.17,NE,46,8.0,12.0,73,0.00,,,0.01,,2013-02-02 18:31:00,
2013-02-02 08:41:00,73.0,64.0,30.17,NE,46,8.0,12.0,73,0.00,,,0.01,,2013-02-02 18:41:00,
2013-02-02 08:52:00,73.0,64.0,30.17,NE,56,10.0,15.0,74,0.00,,,0.01,,2013-02-02 18:52:00,
2013-02-02 09:01:00,73.0,64.0,30.18,NE,56,8.0,17.0,74,0.00,,,0.01,,2013-02-02 19:01:00,
2013-02-02 09:11:00,73.0,64.0,30.18,NE,56,8.0,17.0,74,0.00,,,0.01,,2013-02-02 19:11:00,
2013-02-02 09:21:00,73.0,63.0,30.18,NE,54,8.0,13.0,72,0.00,,,0.01,,2013-02-02 19:21:00,
2013-02-02 09:31:00,74.0,64.0,30.19,ENE,62,7.0,11.0,70,0.00,,,0.01,,2013-02-02 19:31:00,
2013-02-02 09:41:00,74.0,64.0,30.19,ENE,62,7.0,11.0,70,0.00,,,0.01,,2013-02-02 19:41:00,
2013-02-02 09:52:00,74.0,64.0,30.19,NE,56,6.0,11.0,72,0.00,,,0.01,,2013-02-02 19:52:00,
2013-02-02 10:01:00,74.0,63.0,30.19,ENE,63,7.0,12.0,69,0.00,,,0.01,,2013-02-02 20:01:00,
2013-02-02 10:11:00,74.0,63.0,30.19,ENE,63,7.0,12.0,69,0.00,,,0.01,,2013-02-02 20:11:00,
2013-02-02 10:21:00,74.0,64.0,30.19,ENE,76,6.0,11.0,70,0.00,,,0.00,,2013-02-02 20:21:00,
2013-02-02 10:32:00,74.0,62.0,30.19,NE,50,6.0,11.0,67,0.00,,,0.00,,2013-02-02 20:32:00,
2013-02-02 10:41:00,74.0,62.0,30.19,NE,50,6.0,11.0,67,0.00,,,0.00,,2013-02-02 20:41:00,
2013-02-02 10:52:00,74.0,62.0,30.18,ESE,102,8.0,13.0,67,0.00,,,0.00,,2013-02-02 20:52:00,
2013-02-02 11:01:00,74.0,63.0,30.18,NE,44,6.0,13.0,68,0.00,,,0.00,,2013-02-02 21:01:00,
2013-02-02 11:11:00,74.0,63.0,30.18,NE,44,6.0,13.0,68,0.00,,,0.00,,2013-02-02 21:11:00,
2013-02-02 11:21:00,74.0,64.0,30.17,East,85,8.0,11.0,71,0.00,,,0.00,,2013-02-02 21:21:00,
2013-02-02 11:32:00,74.0,64.0,30.16,ENE,61,8.0,13.0,70,0.00,,,0.00,,2013-02-02 21:32:00,
2013-02-02 11:42:00,74.0,64.0,30.16,ENE,61,8.0,13.0,70,0.00,,,0.00,,2013-02-02 21:42:00,
2013-02-02 11:52:00,74.0,63.0,30.16,East,85,5.0,12.0,69,0.00,,,0.00,,2013-02-02 21:52:00,
2013-02-02 12:01:00,74.0,62.0,30.16,East,91,6.0,12.0,67,0.00,,,0.00,,2013-02-02 22:01:00,
2013-02-02 12:11:00,74.0,62.0,30.16,East,91,6.0,12.0,67,0.00,,,0.00,,2013-02-02 22:11:00,
2013-02-02 12:21:00,74.0,62.0,30.15,NE,47,6.0,9.0,67,0.00,,,0.00,,2013-02-02 22:21:00,
2013-02-02 12:32:00,74.0,62.0,30.14,East,93,4.0,9.0,66,0.00,,,0.00,,2013-02-02 22:32:00,
2013-02-02 12:41:00,74.0,62.0,30.14,East,93,4.0,9.0,66,0.00,,,0.00,,2013-02-02 22:41:00,
2013-02-02 12:52:00,73.0,61.0,30.14,NE,42,5.0,9.0,67,0.00,,,0.00,,2013-02-02 22:52:00,
2013-02-02 13:01:00,73.0,62.0,30.13,NE,51,6.0,10.0,68,0.00,,,0.00,,2013-02-02 23:01:00,
2013-02-02 13:11:00,73.0,62.0,30.13,NE,51,6.0,10.0,68,0.00,,,0.00,,2013-02-02 23:11:00,
2013-02-02 13:21:00,74.0,62.0,30.12,ENE,71,5.0,11.0,67,0.00,,,0.00,,2013-02-02 23:21:00,
2013-02-02 13:32:00,73.0,63.0,30.11,East,81,8.0,13.0,71,0.00,,,0.00,,2013-02-02 23:32:00,
2013-02-02 13:41:00,73.0,63.0,30.11,East,81,8.0,13.0,71,0.00,,,0.00,,2013-02-02 23:41:00,
2013-02-02 13:52:00,73.0,63.0,30.11,NE,54,7.0,12.0,70,0.00,,,0.00,,2013-02-02 23:52:00,
2013-02-02 14:01:00,73.0,63.0,30.10,NE,55,7.0,12.0,72,0.00,,,0.00,,2013-02-03 00:01:00,
2013-02-02 14:11:00,73.0,63.0,30.10,NE,55,7.0,12.0,72,0.00,,,0.00,,2013-02-03 00:11:00,
2013-02-02 14:21:00,73.0,62.0,30.10,ENE,64,7.0,11.0,69,0.00,,,0.00,,2013-02-03 00:21:00,
2013-02-02 14:31:00,73.0,62.0,30.10,ENE,64,9.0,14.0,69,0.00,,,0.00,,2013-02-03 00:31:00,
2013-02-02 14:41:00,73.0,62.0,30.10,ENE,64,9.0,14.0,69,0.00,,,0.00,,2013-02-03 00:41:00,
2013-02-02 14:52:00,73.0,62.0,30.10,ENE,71,7.0,13.0,68,0.00,,,0.00,,2013-02-03 00:52:00,
2013-02-02 15:01:00,72.0,60.0,30.09,ENE,61,10.0,14.0,67,0.00,,,0.00,,2013-02-03 01:01:00,
2013-02-02 15:11:00,72.0,60.0,30.09,ENE,61,10.0,14.0,67,0.00,,,0.00,,2013-02-03 01:11:00,
2013-02-02 15:21:00,72.0,62.0,30.10,NE,46,7.0,13.0,71,0.00,,,0.00,,2013-02-03 01:21:00,
2013-02-02 15:32:00,73.0,63.0,30.10,ENE,71,7.0,12.0,70,0.00,,,0.00,,2013-02-03 01:32:00,
2013-02-02 15:41:00,73.0,63.0,30.10,ENE,71,7.0,12.0,70,0.00,,,0.00,,2013-02-03 01:41:00,
2013-02-02 15:52:00,73.0,63.0,30.10,ENE,58,7.0,14.0,70,0.00,,,0.00,,2013-02-03 01:52:00,
2013-02-02 16:01:00,73.0,62.0,30.10,NE,56,8.0,12.0,69,0.00,,,0.00,,2013-02-03 02:01:00,
2013-02-02 16:11:00,73.0,62.0,30.10,NE,56,8.0,12.0,69,0.00,,,0.00,,2013-02-03 02:11:00,
2013-02-02 16:21:00,73.0,63.0,30.11,NE,34,8.0,12.0,70,0.00,,,0.00,,2013-02-03 02:21:00,
2013-02-02 16:31:00,73.0,63.0,30.11,NE,49,7.0,11.0,70,0.00,,,0.00,,2013-02-03 02:31:00,
2013-02-02 16:41:00,73.0,63.0,30.11,NE,49,7.0,11.0,70,0.00,,,0.00,,2013-02-03 02:41:00,
2013-02-02 16:52:00,73.0,63.0,30.11,NNE,31,7.0,13.0,70,0.00,,,0.00,,2013-02-03 02:52:00,
2013-02-02 17:01:00,73.0,63.0,30.11,NE,48,7.0,11.0,71,0.00,,,0.00,,2013-02-03 03:01:00,
2013-02-02 17:11:00,73.0,63.0,30.11,NE,48,7.0,11.0,71,0.00,,,0.00,,2013-02-03 03:11:00,
2013-02-02 17:21:00,73.0,63.0,30.12,North,10,7.0,12.0,72,0.00,,,0.00,,2013-02-03 03:21:00,
2013-02-02 17:31:00,72.0,62.0,30.12,North,355,7.0,11.0,71,0.00,,,0.00,,2013-02-03 03:31:00,
2013-02-02 17:41:00,72.0,62.0,30.12,North,355,7.0,11.0,71,0.00,,,0.00,,2013-02-03 03:41:00,
2013-02-02 17:52:00,72.0,63.0,30.13,NE,50,8.0,13.0,73,0.00,,,0.00,,2013-02-03 03:52:00,
2013-02-02 18:01:00,72.0,62.0,30.13,NE,35,8.0,13.0,72,0.00,,,0.00,,2013-02-03 04:01:00,
2013-02-02 18:11:00,72.0,62.0,30.13,NE,35,8.0,13.0,72,0.00,,,0.00,,2013-02-03 04:11:00,
2013-02-02 18:21:00,72.0,62.0,30.13,North,5,5.0,10.0,71,0.00,,,0.00,,2013-02-03 04:21:00,
2013-02-02 18:31:00,72.0,62.0,30.13,NNE,31,6.0,10.0,72,0.00,,,0.00,,2013-02-03 04:31:00,
2013-02-02 18:42:00,72.0,62.0,30.13,NNE,31,6.0,10.0,72,0.00,,,0.00,,2013-02-03 04:42:00,
2013-02-02 18:52:00,72.0,62.0,30.13,North,360,9.0,13.0,70,0.00,,,0.00,,2013-02-03 04:52:00,
2013-02-02 19:03:00,72.0,62.0,30.13,SSE,152,9.0,13.0,70,0.00,,,0.00,,2013-02-03 05:03:00,
2013-02-02 19:11:00,72.0,62.0,30.13,SSE,152,9.0,13.0,70,0.00,,,0.00,,2013-02-03 05:11:00,
2013-02-02 19:22:00,72.0,62.0,30.14,NE,39,8.0,12.0,72,0.00,,,0.00,,2013-02-03 05:22:00,
2013-02-02 19:31:00,71.0,60.0,30.14,NNW,338,5.0,9.0,68,0.00,,,0.00,,2013-02-03 05:31:00,
2013-02-02 19:41:00,71.0,60.0,30.14,NNW,338,5.0,9.0,68,0.00,,,0.00,,2013-02-03 05:41:00,
2013-02-02 19:52:00,71.0,60.0,30.15,NW,308,5.0,9.0,68,0.00,,,0.00,,2013-02-03 05:52:00,
2013-02-02 20:02:00,71.0,60.0,30.15,NNW,338,5.0,10.0,69,0.00,,,0.00,,2013-02-03 06:02:00,
2013-02-02 20:11:00,71.0,60.0,30.15,NNW,338,5.0,10.0,69,0.00,,,0.00,,2013-02-03 06:11:00,
2013-02-02 20:21:00,72.0,62.0,30.16,NNE,13,6.0,11.0,71,0.00,,,0.00,,2013-02-03 06:21:00,
2013-02-02 20:31:00,71.0,61.0,30.16,NE,53,5.0,11.0,71,0.00,,,0.00,,2013-02-03 06:31:00,
2013-02-02 20:41:00,71.0,61.0,30.16,NE,53,5.0,11.0,71,0.00,,,0.00,,2013-02-03 06:41:00,
2013-02-02 20:52:00,71.0,59.0,30.16,NNW,343,4.0,8.0,67,0.00,,,0.00,,2013-02-03 06:52:00,
2013-02-02 21:01:00,71.0,60.0,30.16,NW,323,5.0,11.0,68,0.00,,,0.00,,2013-02-03 07:01:00,
2013-02-02 21:11:00,71.0,60.0,30.16,NW,323,5.0,11.0,68,0.00,,,0.00,,2013-02-03 07:11:00,
2013-02-02 21:21:00,71.0,59.0,30.16,NW,310,7.0,13.0,66,0.00,,,0.00,,2013-02-03 07:21:00,
2013-02-02 21:31:00,71.0,60.0,30.16,North,6,6.0,9.0,68,0.00,,,0.00,,2013-02-03 07:31:00,
2013-02-02 21:41:00,71.0,60.0,30.16,North,6,6.0,9.0,68,0.00,,,0.00,,2013-02-03 07:41:00,
2013-02-02 21:52:00,71.0,60.0,30.16,SSE,153,6.0,12.0,69,0.00,,,0.00,,2013-02-03 07:52:00,
2013-02-02 22:01:00,71.0,61.0,30.16,North,356,8.0,14.0,70,0.00,,,0.00,,2013-02-03 08:01:00,
2013-02-02 22:11:00,71.0,61.0,30.16,North,356,8.0,14.0,70,0.00,,,0.00,,2013-02-03 08:11:00,
2013-02-02 22:22:00,71.0,61.0,30.16,ENE,62,6.0,13.0,71,0.00,,,0.00,,2013-02-03 08:22:00,
2013-02-02 22:32:00,71.0,61.0,30.15,NNE,22,3.0,10.0,70,0.00,,,0.00,,2013-02-03 08:32:00,
2013-02-02 22:41:00,71.0,61.0,30.15,NNE,22,3.0,10.0,70,0.00,,,0.00,,2013-02-03 08:41:00,
2013-02-02 22:52:00,71.0,61.0,30.15,NNE,12,6.0,11.0,70,0.00,,,0.00,,2013-02-03 08:52:00,
2013-02-02 23:02:00,70.0,59.0,30.15,WNW,302,4.0,10.0,69,0.00,,,0.00,,2013-02-03 09:02:00,
2013-02-02 23:11:00,70.0,59.0,30.15,WNW,302,4.0,10.0,69,0.00,,,0.00,,2013-02-03 09:11:00,
2013-02-02 23:21:00,70.0,60.0,30.15,NNE,22,6.0,11.0,71,0.00,,,0.00,,2013-02-03 09:21:00,
2013-02-02 23:31:00,70.0,60.0,30.15,NW,308,2.0,7.0,70,0.00,,,0.00,,2013-02-03 09:31:00,
2013-02-02 23:41:00,70.0,60.0,30.15,NW,308,2.0,7.0,70,0.00,,,0.00,,2013-02-03 09:41:00,
2013-02-02 23:52:00,68.0,59.0,30.14,NW,321,2.0,5.0,73,0.00,,,0.00,,2013-02-03 09:52:00,